ESSA 7

operational
NORAD ID: 3345 Int'l Des: 1968-069 Owner: ESSA Country: US
LEOCIRCULARRETROGRADESSO

关于 ESSA 7

正在加载描述...

实时位置

正在加载3D地球...

即将过境

高度历史

Altitude vs Time

uPlot chart will show altitude changes over time

两行轨道根数

1 03345U 68069A 26063.45337139 -.00000054 00000-0 -66693-4 0 9991
2 03345 101.5479 32.5807 0026862 13.5210 104.8419 12.53008941631869
Epoch: Mar 4, 2026 • Age: 21 hours

当前状态

高度 1482.7 km
速度 7.11 km/s
星下点 -29.13°S, 89.63°E
类型 other

大型星座

Loading constellations...